CFG9DT EDDM-GCTS

Flight info

Callsign CFG9DT
Flight time N/A
Altitude 31000
Route ALG2S ALG Y109 UMTEX Y100 TRA/N0454F330 DCT LUTIX DCT BENOT DCT NEMOS DCT NINTU DCT MEBAK DCT REPSI DCT LERGA DCT MINSO DCT NARAK DCT AGN DCT PIPOR L866 PPN DCT MIRPO DCT DGO DCT NEA L14 ADINO DCT RAKOD/N0451F350 DCT ELVAR DCT GAIOS DCT TROIA DCT BEXAL UN866 KONBA
Aircraft A321/M-SDE3FGHIRWY/LB1

Departure

Time 2026-05-06 07:20
Airport Munich Airport (EDDM)

Arrival

Time N/A
Airport Tenerife Sur Airport (GCTS)
Time Latitude Longitude Altitude Speed Heading
2026-05-06 07:01 48.34863 11.78385 1486 ft 0 kts 83°
2026-05-06 07:10 48.34863 11.78382 1485 ft 3 kts 83°
2026-05-06 07:11 48.34861 11.78348 1480 ft 2 kts 83°
2026-05-06 07:11 48.34862 11.78313 1482 ft 4 kts 116°
2026-05-06 07:11 48.34874 11.78279 1471 ft 3 kts 118°
2026-05-06 07:11 48.34890 11.78249 1474 ft 4 kts 151°
2026-05-06 07:12 48.34915 11.78236 1481 ft 4 kts 172°
2026-05-06 07:12 48.34938 11.78232 1477 ft 4 kts 173°
2026-05-06 07:12 48.34947 11.78231 1473 ft 0 kts 173°
2026-05-06 07:14 48.34945 11.78231 1473 ft 2 kts 173°
2026-05-06 07:14 48.34942 11.78231 1472 ft 3 kts 174°
2026-05-06 07:14 48.34926 11.78232 1479 ft 7 kts 181°
2026-05-06 07:15 48.34881 11.78142 1478 ft 16 kts 260°
2026-05-06 07:15 48.34837 11.78036 1485 ft 12 kts 191°
2026-05-06 07:15 48.34750 11.78048 1481 ft 13 kts 173°
2026-05-06 07:15 48.34683 11.78108 1482 ft 12 kts 103°
2026-05-06 07:16 48.34694 11.78292 1485 ft 24 kts 83°
2026-05-06 07:16 48.34716 11.78588 1485 ft 30 kts 83°
2026-05-06 07:16 48.34738 11.78885 1485 ft 28 kts 83°
2026-05-06 07:16 48.34760 11.79161 1485 ft 26 kts 83°
2026-05-06 07:17 48.34780 11.79418 1485 ft 24 kts 83°
2026-05-06 07:17 48.34799 11.79657 1473 ft 22 kts 83°
2026-05-06 07:17 48.34815 11.79874 1485 ft 20 kts 83°
2026-05-06 07:17 48.34830 11.80076 1485 ft 19 kts 84°
2026-05-06 07:18 48.34774 11.80222 1471 ft 16 kts 143°
2026-05-06 07:18 48.34675 11.80250 1478 ft 14 kts 174°
2026-05-06 07:18 48.34586 11.80264 1483 ft 12 kts 173°
2026-05-06 07:18 48.34510 11.80275 1474 ft 10 kts 184°
2026-05-06 07:19 48.34465 11.80221 1471 ft 7 kts 245°
2026-05-06 07:19 48.34457 11.80152 1485 ft 8 kts 262°
2026-05-06 07:19 48.34436 11.79872 1473 ft 58 kts 263°
2026-05-06 07:19 48.34363 11.78948 1474 ft 117 kts 263°
2026-05-06 07:20 48.34250 11.77487 1483 ft 162 kts 263°
2026-05-06 07:20 48.34094 11.75632 1612 ft 187 kts 262°
2026-05-06 07:20 48.33933 11.73759 2330 ft 180 kts 263°
2026-05-06 07:20 48.33780 11.71862 2830 ft 188 kts 263°
2026-05-06 07:21 48.33620 11.69848 3151 ft 201 kts 264°
2026-05-06 07:21 48.33463 11.67671 3286 ft 217 kts 264°
2026-05-06 07:21 48.33292 11.65335 3531 ft 231 kts 264°
2026-05-06 07:21 48.33118 11.62870 3776 ft 250 kts 264°
2026-05-06 07:22 48.32936 11.60182 4171 ft 263 kts 264°
2026-05-06 07:22 48.32747 11.57429 4793 ft 267 kts 264°
2026-05-06 07:22 48.32550 11.54641 5422 ft 270 kts 263°
2026-05-06 07:22 48.32345 11.51814 6071 ft 274 kts 262°
2026-05-06 07:23 48.32136 11.48959 6704 ft 276 kts 262°
2026-05-06 07:23 48.31925 11.46081 7336 ft 278 kts 262°
2026-05-06 07:23 48.31712 11.43188 7960 ft 280 kts 262°
2026-05-06 07:23 48.31495 11.40275 8598 ft 281 kts 261°
2026-05-06 07:24 48.31275 11.37344 9255 ft 283 kts 261°
2026-05-06 07:24 48.31054 11.34394 9866 ft 285 kts 261°
2026-05-06 07:24 48.30828 11.31430 10439 ft 286 kts 259°
2026-05-06 07:24 48.30331 11.28547 10980 ft 285 kts 245°
2026-05-06 07:25 48.29391 11.25880 11158 ft 300 kts 236°
2026-05-06 07:25 48.28235 11.23157 11288 ft 318 kts 236°
2026-05-06 07:25 48.27017 11.20282 11421 ft 334 kts 236°
2026-05-06 07:25 48.25742 11.17261 11556 ft 350 kts 236°
2026-05-06 07:26 48.24419 11.14123 11872 ft 359 kts 236°
2026-05-06 07:26 48.23079 11.10936 12382 ft 362 kts 236°
2026-05-06 07:26 48.21732 11.07726 12931 ft 365 kts 236°
2026-05-06 07:26 48.20374 11.04498 13469 ft 367 kts 236°
2026-05-06 07:27 48.19008 11.01250 13937 ft 369 kts 236°
2026-05-06 07:27 48.17635 10.97985 14402 ft 372 kts 236°
2026-05-06 07:27 48.16251 10.94697 14842 ft 374 kts 236°
2026-05-06 07:27 48.14858 10.91391 15277 ft 376 kts 236°
2026-05-06 07:28 48.13452 10.88070 15716 ft 379 kts 236°
2026-05-06 07:28 48.12033 10.84725 16113 ft 382 kts 236°
2026-05-06 07:28 48.09655 10.77638 16953 ft 389 kts 250°
2026-05-06 07:29 48.08909 10.73717 17381 ft 392 kts 252°
2026-05-06 07:29 48.08165 10.69786 17832 ft 393 kts 252°
2026-05-06 07:29 48.07408 10.65834 18195 ft 397 kts 252°
2026-05-06 07:29 48.06641 10.61846 18544 ft 399 kts 251°
2026-05-06 07:30 48.05870 10.57850 18907 ft 401 kts 251°
2026-05-06 07:30 48.05095 10.53829 19274 ft 402 kts 251°
2026-05-06 07:30 48.04319 10.49799 19657 ft 404 kts 251°
2026-05-06 07:30 48.03547 10.45808 20010 ft 405 kts 251°
2026-05-06 07:31 48.02762 10.41753 20373 ft 407 kts 251°
2026-05-06 07:31 48.01971 10.37684 20728 ft 408 kts 251°
2026-05-06 07:31 48.01172 10.33603 21095 ft 410 kts 251°
2026-05-06 07:31 48.00370 10.29510 21476 ft 412 kts 251°
2026-05-06 07:32 47.99554 10.25398 21826 ft 413 kts 250°
2026-05-06 07:32 47.98647 10.21325 22223 ft 413 kts 248°
2026-05-06 07:32 47.97657 10.17291 22566 ft 415 kts 246°
2026-05-06 07:32 47.96619 10.13268 22886 ft 417 kts 246°
2026-05-06 07:33 47.95559 10.09231 23217 ft 419 kts 245°
2026-05-06 07:33 47.94512 10.05228 23523 ft 420 kts 246°
2026-05-06 07:33 47.93462 10.01149 23819 ft 421 kts 246°
2026-05-06 07:33 47.92424 9.97064 24126 ft 422 kts 246°
2026-05-06 07:34 47.91388 9.92963 24428 ft 422 kts 246°
2026-05-06 07:34 47.90357 9.88862 24725 ft 423 kts 246°
2026-05-06 07:34 47.89326 9.84753 25020 ft 423 kts 246°
2026-05-06 07:34 47.88296 9.80633 25313 ft 424 kts 246°
2026-05-06 07:35 47.87273 9.76518 25597 ft 424 kts 246°
2026-05-06 07:35 47.86247 9.72401 25931 ft 424 kts 246°
2026-05-06 07:35 47.85220 9.68284 26235 ft 424 kts 245°
2026-05-06 07:35 47.84196 9.64156 26528 ft 425 kts 247°
2026-05-06 07:36 47.83450 9.59885 26921 ft 428 kts 255°
2026-05-06 07:36 47.82939 9.55529 27320 ft 427 kts 255°
2026-05-06 07:36 47.82424 9.51190 27692 ft 425 kts 255°
2026-05-06 07:36 47.81912 9.46922 28061 ft 423 kts 254°
2026-05-06 07:37 47.81394 9.42639 28453 ft 421 kts 254°
2026-05-06 07:37 47.80873 9.38347 28876 ft 419 kts 254°
2026-05-06 07:37 47.80353 9.34092 29275 ft 417 kts 254°
2026-05-06 07:37 47.79833 9.29861 29701 ft 415 kts 253°
2026-05-06 07:38 47.79308 9.25620 29877 ft 417 kts 253°
2026-05-06 07:38 47.78783 9.21373 30073 ft 418 kts 253°
2026-05-06 07:38 47.78261 9.17115 30343 ft 418 kts 254°
2026-05-06 07:38 47.77739 9.12875 30637 ft 416 kts 253°
2026-05-06 07:39 47.77214 9.08639 30939 ft 415 kts 253°
2026-05-06 07:39 47.76689 9.04426 31238 ft 413 kts 253°
2026-05-06 07:39 47.76165 9.00235 31538 ft 412 kts 253°
2026-05-06 07:39 47.75641 8.96065 31830 ft 410 kts 253°
2026-05-06 07:40 47.75118 8.91895 32125 ft 409 kts 253°
2026-05-06 07:40 47.74598 8.87755 32418 ft 407 kts 253°
2026-05-06 07:40 47.74077 8.83625 32661 ft 407 kts 254°
2026-05-06 07:40 47.73728 8.80887 32775 ft 408 kts 254°
2026-05-06 07:41 47.72665 8.72541 32824 ft 413 kts 254°
2026-05-06 07:41 47.71592 8.64138 32830 ft 413 kts 254°
2026-05-06 07:42 47.70520 8.55807 32830 ft 413 kts 254°
2026-05-06 07:42 47.69394 8.47452 32824 ft 409 kts 249°
2026-05-06 07:43 47.67101 8.39898 32849 ft 398 kts 232°
2026-05-06 07:43 47.63861 8.33205 32812 ft 401 kts 231°
2026-05-06 07:44 47.60585 8.26447 32827 ft 410 kts 231°
2026-05-06 07:44 47.57241 8.19541 32829 ft 412 kts 231°
2026-05-06 07:45 47.53886 8.12640 32829 ft 412 kts 231°
2026-05-06 07:45 47.50525 8.05767 32833 ft 411 kts 231°
2026-05-06 07:46 47.47177 7.98938 32832 ft 409 kts 231°
2026-05-06 07:46 47.43850 7.92176 32836 ft 409 kts 231°
2026-05-06 07:47 47.40506 7.85369 32838 ft 409 kts 231°
2026-05-06 07:47 47.37158 7.78566 32842 ft 410 kts 231°
2026-05-06 07:48 47.33799 7.71775 32843 ft 409 kts 231°
2026-05-06 07:48 47.30440 7.65003 32853 ft 409 kts 230°
2026-05-06 07:49 47.27078 7.58242 32854 ft 408 kts 230°
2026-05-06 07:49 47.23726 7.51503 32854 ft 408 kts 230°
2026-05-06 07:50 47.20371 7.44774 32858 ft 407 kts 230°
2026-05-06 07:50 47.16987 7.38036 32853 ft 410 kts 230°
2026-05-06 07:51 47.13525 7.31382 32835 ft 409 kts 228°
2026-05-06 07:51 47.09967 7.24912 32834 ft 410 kts 228°
2026-05-06 07:52 47.06377 7.18413 32842 ft 411 kts 228°
2026-05-06 07:52 47.02804 7.11874 32852 ft 410 kts 228°
2026-05-06 07:53 46.99241 7.05336 32845 ft 410 kts 228°
2026-05-06 07:53 46.95670 6.98807 32848 ft 410 kts 228°
2026-05-06 07:54 46.92092 6.92297 32849 ft 411 kts 228°
2026-05-06 07:54 46.88498 6.85764 32832 ft 413 kts 228°
2026-05-06 07:55 46.84879 6.79222 32830 ft 414 kts 228°
2026-05-06 07:55 46.81254 6.72685 32833 ft 415 kts 228°
2026-05-06 07:56 46.77640 6.66180 32839 ft 415 kts 228°
2026-05-06 07:56 46.73994 6.59644 32874 ft 414 kts 228°
2026-05-06 07:57 46.70370 6.53140 32866 ft 412 kts 227°
2026-05-06 07:57 46.66749 6.46659 32865 ft 414 kts 227°
2026-05-06 07:58 46.63092 6.40129 32848 ft 417 kts 227°
2026-05-06 07:58 46.59442 6.33644 32844 ft 417 kts 227°
2026-05-06 07:59 46.55749 6.27113 32854 ft 418 kts 227°
2026-05-06 07:59 46.52054 6.20569 32856 ft 418 kts 227°
2026-05-06 08:00 46.48359 6.14029 32864 ft 419 kts 227°
2026-05-06 08:00 46.44660 6.07497 32867 ft 419 kts 227°
2026-05-06 08:01 46.40949 6.00975 32876 ft 420 kts 227°
2026-05-06 08:01 46.37218 5.94437 32867 ft 422 kts 227°
2026-05-06 08:02 46.33469 5.87872 32862 ft 424 kts 227°
2026-05-06 08:02 46.29723 5.81336 32863 ft 425 kts 227°
2026-05-06 08:03 46.25936 5.74738 32866 ft 426 kts 227°
2026-05-06 08:03 46.22143 5.68148 32865 ft 426 kts 227°
2026-05-06 08:04 46.18370 5.61622 32870 ft 426 kts 227°
2026-05-06 08:04 46.14591 5.55026 32879 ft 428 kts 231°
2026-05-06 08:05 46.11198 5.47946 32869 ft 430 kts 232°
2026-05-06 08:05 46.07794 5.40842 32867 ft 431 kts 232°
2026-05-06 08:06 46.04371 5.33737 32882 ft 432 kts 232°
2026-05-06 08:06 46.00941 5.26627 32905 ft 432 kts 233°
2026-05-06 08:07 45.97517 5.19537 32915 ft 431 kts 232°
2026-05-06 08:07 45.94090 5.12467 32936 ft 431 kts 233°
2026-05-06 08:08 45.90673 5.05446 32906 ft 432 kts 233°
2026-05-06 08:08 45.87214 4.98342 32904 ft 434 kts 233°
2026-05-06 08:09 45.83753 4.91257 32921 ft 433 kts 233°
2026-05-06 08:09 45.80294 4.84187 32929 ft 433 kts 233°
2026-05-06 08:10 45.76833 4.77136 32930 ft 432 kts 233°
2026-05-06 08:10 45.73364 4.70097 32947 ft 432 kts 233°
2026-05-06 08:11 45.69890 4.63062 32910 ft 434 kts 233°
2026-05-06 08:11 45.66404 4.56008 32915 ft 434 kts 233°
2026-05-06 08:12 45.62921 4.48970 32919 ft 434 kts 233°
2026-05-06 08:12 45.59453 4.41973 32921 ft 434 kts 233°
2026-05-06 08:13 45.55955 4.34953 32927 ft 434 kts 233°
2026-05-06 08:13 45.52455 4.27949 32941 ft 433 kts 233°
2026-05-06 08:14 45.48947 4.20948 32915 ft 435 kts 233°
2026-05-06 08:14 45.45427 4.13941 32910 ft 435 kts 233°
2026-05-06 08:15 45.41899 4.06931 32905 ft 435 kts 233°
2026-05-06 08:15 45.38357 3.99926 32904 ft 436 kts 233°
2026-05-06 08:16 45.34815 3.92927 32907 ft 436 kts 233°
2026-05-06 08:16 45.31278 3.85934 32910 ft 435 kts 233°
2026-05-06 08:17 45.27735 3.78952 32924 ft 435 kts 233°
2026-05-06 08:17 45.24211 3.72024 32912 ft 435 kts 234°
2026-05-06 08:18 45.20742 3.64985 32909 ft 435 kts 234°
2026-05-06 08:18 45.17294 3.57912 32911 ft 435 kts 234°
2026-05-06 08:19 45.13836 3.50872 32912 ft 435 kts 234°
2026-05-06 08:19 45.10358 3.43875 32915 ft 434 kts 234°
2026-05-06 08:20 45.06882 3.36906 32930 ft 432 kts 234°
2026-05-06 08:20 45.03419 3.29963 32930 ft 432 kts 234°
2026-05-06 08:21 44.99957 3.23014 32930 ft 431 kts 234°
2026-05-06 08:21 44.96500 3.16106 32934 ft 431 kts 234°
2026-05-06 08:22 44.93022 3.09177 32936 ft 431 kts 234°
2026-05-06 08:22 44.89581 3.02332 32947 ft 431 kts 234°
2026-05-06 08:23 44.86105 2.95431 32930 ft 431 kts 234°
2026-05-06 08:23 44.82680 2.88488 32925 ft 432 kts 236°
2026-05-06 08:24 44.79429 2.81365 32927 ft 432 kts 237°
2026-05-06 08:24 44.76211 2.74213 32932 ft 432 kts 237°
2026-05-06 08:25 44.72952 2.67102 32946 ft 432 kts 237°
2026-05-06 08:25 44.69672 2.60055 32921 ft 434 kts 237°
2026-05-06 08:26 44.66356 2.52949 32912 ft 435 kts 237°
2026-05-06 08:26 44.63034 2.45819 32924 ft 436 kts 237°
2026-05-06 08:27 44.59700 2.38675 32921 ft 437 kts 237°
2026-05-06 08:27 44.56369 2.31572 32937 ft 435 kts 237°
2026-05-06 08:28 44.53603 2.25692 32945 ft 435 kts 237°
2026-05-06 08:28 44.50273 2.18613 32938 ft 435 kts 237°
2026-05-06 08:29 44.46944 2.11535 32930 ft 435 kts 237°
2026-05-06 08:29 44.43602 2.04466 32931 ft 435 kts 237°
2026-05-06 08:30 44.40249 1.97401 32910 ft 436 kts 237°
2026-05-06 08:30 44.36903 1.90353 32957 ft 434 kts 237°
2026-05-06 08:31 44.33557 1.83333 32961 ft 434 kts 237°
2026-05-06 08:31 44.30202 1.76320 32957 ft 434 kts 237°
2026-05-06 08:32 44.26889 1.69279 32959 ft 434 kts 238°
2026-05-06 08:32 44.23679 1.62215 32950 ft 434 kts 238°
2026-05-06 08:33 44.20448 1.55117 32954 ft 433 kts 238°
2026-05-06 08:33 44.17191 1.48043 32961 ft 433 kts 238°
2026-05-06 08:34 44.12288 1.37481 32958 ft 433 kts 238°
2026-05-06 08:35 44.09020 1.30452 32957 ft 433 kts 238°
2026-05-06 08:35 44.05747 1.23432 32953 ft 432 kts 238°
2026-05-06 08:36 44.02471 1.16422 32948 ft 432 kts 238°
2026-05-06 08:36 43.99203 1.09425 32955 ft 431 kts 238°
2026-05-06 08:37 43.95931 1.02436 32963 ft 431 kts 238°
2026-05-06 08:37 43.92683 0.95512 32964 ft 430 kts 238°
2026-05-06 08:38 43.89403 0.88559 32968 ft 430 kts 238°
2026-05-06 08:38 43.86212 0.81537 32964 ft 429 kts 240°
2026-05-06 08:39 43.83188 0.74374 32958 ft 430 kts 241°
2026-05-06 08:39 43.80192 0.67274 32961 ft 429 kts 240°
2026-05-06 08:40 43.77134 0.60178 32974 ft 429 kts 240°
2026-05-06 08:40 43.74057 0.53103 32982 ft 429 kts 240°
2026-05-06 08:41 43.70988 0.46035 32983 ft 429 kts 240°
2026-05-06 08:41 43.67915 0.38977 32981 ft 428 kts 240°
2026-05-06 08:42 43.64840 0.31920 32966 ft 429 kts 240°
2026-05-06 08:42 43.61747 0.24859 32964 ft 429 kts 240°
2026-05-06 08:43 43.58653 0.17824 32985 ft 428 kts 240°
2026-05-06 08:43 43.55570 0.10806 32993 ft 428 kts 240°
2026-05-06 08:44 43.52488 0.03793 32992 ft 427 kts 240°
2026-05-06 08:44 43.49395 -0.03194 32987 ft 428 kts 240°
2026-05-06 08:45 43.46287 -0.10209 32973 ft 429 kts 240°
2026-05-06 08:45 43.43189 -0.17191 32970 ft 430 kts 240°
2026-05-06 08:46 43.40074 -0.24204 32988 ft 428 kts 240°
2026-05-06 08:46 43.36968 -0.31176 32995 ft 426 kts 240°
2026-05-06 08:47 43.33866 -0.38106 32995 ft 425 kts 239°
2026-05-06 08:47 43.30762 -0.45024 32993 ft 425 kts 240°
2026-05-06 08:48 43.27662 -0.51929 32990 ft 424 kts 239°
2026-05-06 08:48 43.24578 -0.58778 32988 ft 424 kts 239°
2026-05-06 08:49 43.21474 -0.65648 32982 ft 423 kts 240°
2026-05-06 08:49 43.18381 -0.72484 33000 ft 420 kts 240°
2026-05-06 08:50 43.15297 -0.79282 33005 ft 420 kts 239°
2026-05-06 08:50 43.12204 -0.86086 32996 ft 421 kts 239°
2026-05-06 08:51 43.09104 -0.92882 32998 ft 421 kts 239°
2026-05-06 08:51 43.06003 -0.99677 32993 ft 421 kts 239°
2026-05-06 08:52 43.02920 -1.06429 32995 ft 421 kts 239°
2026-05-06 08:52 42.99812 -1.13197 33009 ft 419 kts 239°
2026-05-06 08:53 42.96709 -1.19933 33036 ft 418 kts 239°
2026-05-06 08:53 42.93613 -1.26652 33020 ft 417 kts 239°
2026-05-06 08:54 42.90529 -1.33351 33019 ft 417 kts 239°
2026-05-06 08:54 42.87441 -1.40035 33022 ft 416 kts 239°
2026-05-06 08:55 42.84343 -1.46698 33026 ft 417 kts 239°
2026-05-06 08:55 42.81235 -1.53362 33018 ft 416 kts 239°
2026-05-06 08:56 42.78122 -1.60034 33003 ft 419 kts 239°
2026-05-06 08:56 42.74988 -1.66735 33003 ft 421 kts 239°
2026-05-06 08:57 42.72545 -1.73874 33008 ft 420 kts 254°
2026-05-06 08:57 42.70859 -1.81483 33011 ft 421 kts 253°
2026-05-06 08:58 42.69137 -1.89092 33009 ft 421 kts 253°
2026-05-06 08:58 42.67401 -1.96700 32998 ft 422 kts 253°
2026-05-06 08:59 42.65657 -2.04357 33002 ft 425 kts 253°
2026-05-06 08:59 42.63905 -2.12039 33007 ft 426 kts 253°
2026-05-06 09:00 42.62135 -2.19684 33007 ft 427 kts 252°
2026-05-06 09:00 42.60273 -2.27348 33016 ft 427 kts 252°
2026-05-06 09:01 42.58391 -2.35007 32999 ft 428 kts 252°
2026-05-06 09:01 42.56516 -2.42669 33021 ft 428 kts 252°
2026-05-06 09:02 42.54646 -2.50328 33029 ft 427 kts 252°
2026-05-06 09:02 42.52768 -2.57967 33022 ft 427 kts 252°
2026-05-06 09:03 42.50890 -2.65611 33035 ft 427 kts 252°
2026-05-06 09:03 42.49005 -2.73258 33019 ft 428 kts 252°
2026-05-06 09:04 42.47119 -2.80871 33020 ft 429 kts 252°
2026-05-06 09:04 42.45165 -2.88532 33005 ft 431 kts 248°
2026-05-06 09:05 42.42667 -2.95911 33018 ft 431 kts 246°
2026-05-06 09:05 42.40155 -3.03286 33016 ft 432 kts 246°
2026-05-06 09:06 42.37636 -3.10662 33008 ft 432 kts 247°
2026-05-06 09:06 42.35116 -3.18043 33007 ft 431 kts 247°
2026-05-06 09:07 42.32598 -3.25374 33042 ft 429 kts 247°
2026-05-06 09:07 42.30103 -3.32631 33050 ft 428 kts 247°
2026-05-06 09:08 42.27598 -3.39907 33049 ft 427 kts 247°
2026-05-06 09:08 42.25090 -3.47163 33028 ft 426 kts 247°
2026-05-06 09:09 42.22574 -3.54409 33025 ft 427 kts 247°
2026-05-06 09:09 42.20052 -3.61659 33022 ft 427 kts 247°
2026-05-06 09:10 42.17539 -3.68863 33021 ft 427 kts 247°
2026-05-06 09:10 42.15007 -3.76111 33023 ft 427 kts 247°
2026-05-06 09:11 42.12473 -3.83350 32999 ft 427 kts 247°
2026-05-06 09:11 42.09936 -3.90581 33011 ft 427 kts 247°
2026-05-06 09:12 42.07388 -3.97813 33016 ft 427 kts 247°
2026-05-06 09:12 42.04839 -4.05023 33029 ft 427 kts 247°
2026-05-06 09:13 42.01723 -4.11841 33030 ft 432 kts 232°
2026-05-06 09:13 41.97272 -4.17337 33029 ft 436 kts 225°
2026-05-06 09:14 41.93471 -4.21789 33022 ft 436 kts 225°
2026-05-06 09:14 41.88152 -4.28017 33016 ft 436 kts 225°
2026-05-06 09:15 41.83578 -4.33352 33027 ft 436 kts 225°
2026-05-06 09:15 41.79746 -4.37812 33032 ft 435 kts 225°
2026-05-06 09:16 41.75178 -4.43132 33028 ft 435 kts 225°
2026-05-06 09:16 41.70612 -4.48437 33025 ft 434 kts 225°
2026-05-06 09:17 41.66043 -4.53728 33008 ft 434 kts 224°
2026-05-06 09:17 41.61511 -4.58964 33001 ft 433 kts 224°
2026-05-06 09:18 41.56939 -4.64233 32999 ft 434 kts 224°
2026-05-06 09:18 41.52360 -4.69491 33010 ft 434 kts 224°
2026-05-06 09:19 41.47778 -4.74751 33001 ft 434 kts 224°
2026-05-06 09:19 41.43205 -4.80008 33000 ft 434 kts 224°
2026-05-06 09:20 41.38629 -4.85255 33010 ft 433 kts 224°
2026-05-06 09:20 41.34049 -4.90486 33015 ft 433 kts 224°
2026-05-06 09:21 41.29471 -4.95703 33008 ft 433 kts 224°
2026-05-06 09:21 41.24922 -5.00881 33001 ft 434 kts 224°
2026-05-06 09:22 41.20336 -5.06092 32997 ft 434 kts 224°
2026-05-06 09:22 41.15748 -5.11290 33011 ft 433 kts 224°
2026-05-06 09:23 41.11150 -5.16480 33023 ft 433 kts 224°
2026-05-06 09:23 41.06562 -5.21656 33026 ft 433 kts 224°
2026-05-06 09:24 41.01973 -5.26829 33028 ft 433 kts 224°
2026-05-06 09:24 40.97407 -5.31964 33026 ft 432 kts 224°
2026-05-06 09:25 40.92828 -5.37109 33019 ft 432 kts 223°
2026-05-06 09:25 40.88209 -5.42279 33021 ft 432 kts 223°
2026-05-06 09:26 40.83615 -5.47413 33021 ft 433 kts 223°
2026-05-06 09:26 40.79017 -5.52542 33020 ft 433 kts 223°
2026-05-06 09:27 40.74420 -5.57660 32997 ft 432 kts 223°
2026-05-06 09:27 40.69824 -5.62763 33018 ft 431 kts 223°
2026-05-06 09:28 40.65262 -5.67823 33017 ft 431 kts 223°
2026-05-06 09:28 40.60665 -5.72913 33016 ft 431 kts 223°
2026-05-06 09:29 40.56066 -5.77998 33004 ft 432 kts 223°
2026-05-06 09:29 40.51461 -5.83086 33006 ft 432 kts 223°
2026-05-06 09:30 40.46886 -5.88148 33008 ft 432 kts 223°
2026-05-06 09:30 40.42275 -5.93222 32996 ft 432 kts 223°
2026-05-06 09:31 40.37655 -5.98294 33007 ft 432 kts 223°
2026-05-06 09:31 40.33039 -6.03348 33006 ft 433 kts 223°
2026-05-06 09:32 40.28421 -6.08396 33004 ft 432 kts 223°
2026-05-06 09:32 40.23796 -6.13441 33003 ft 432 kts 223°
2026-05-06 09:33 40.19200 -6.18449 33000 ft 433 kts 223°
2026-05-06 09:33 40.14567 -6.23499 33000 ft 433 kts 223°
2026-05-06 09:34 40.09928 -6.28536 33002 ft 433 kts 222°
2026-05-06 09:34 40.05289 -6.33553 32997 ft 432 kts 222°
2026-05-06 09:35 40.00661 -6.38557 33012 ft 432 kts 222°
2026-05-06 09:35 39.96042 -6.43549 33016 ft 431 kts 222°
2026-05-06 09:36 39.91441 -6.48513 33011 ft 431 kts 222°
2026-05-06 09:36 39.86814 -6.53502 33005 ft 432 kts 222°
2026-05-06 09:36 39.84488 -6.55997 33152 ft 432 kts 222°
2026-05-06 09:37 39.82167 -6.58481 33463 ft 431 kts 222°
2026-05-06 09:37 39.79856 -6.60951 33778 ft 429 kts 222°
2026-05-06 09:37 39.77549 -6.63417 34061 ft 428 kts 222°
2026-05-06 09:37 39.75252 -6.65874 34298 ft 427 kts 222°
2026-05-06 09:38 39.72960 -6.68331 34499 ft 427 kts 222°
2026-05-06 09:38 39.70698 -6.70754 34683 ft 427 kts 222°
2026-05-06 09:38 39.68405 -6.73206 34885 ft 427 kts 222°
2026-05-06 09:38 39.66103 -6.75664 34991 ft 428 kts 222°
2026-05-06 09:39 39.63800 -6.78116 35008 ft 428 kts 222°
2026-05-06 09:39 39.59198 -6.83003 35000 ft 426 kts 222°
2026-05-06 09:40 39.54607 -6.87872 35008 ft 427 kts 222°
2026-05-06 09:40 39.47725 -6.95162 35008 ft 428 kts 222°
2026-05-06 09:41 39.43118 -7.00039 35014 ft 428 kts 222°
2026-05-06 09:41 39.38509 -7.04908 35017 ft 428 kts 221°
2026-05-06 09:42 39.33898 -7.09763 35008 ft 427 kts 221°
2026-05-06 09:42 39.29291 -7.14614 35020 ft 427 kts 221°
2026-05-06 09:43 39.24688 -7.19446 35025 ft 426 kts 221°
2026-05-06 09:43 39.20345 -7.24601 35023 ft 423 kts 230°
2026-05-06 09:44 39.16404 -7.30249 35017 ft 424 kts 230°
2026-05-06 09:44 39.12442 -7.35885 35015 ft 424 kts 230°
2026-05-06 09:45 39.08472 -7.41517 35010 ft 424 kts 230°
2026-05-06 09:45 39.04496 -7.47138 35022 ft 424 kts 230°
2026-05-06 09:46 39.00558 -7.52715 35026 ft 424 kts 230°
2026-05-06 09:46 38.96592 -7.58315 35029 ft 424 kts 230°
2026-05-06 09:47 38.92612 -7.63925 35027 ft 424 kts 230°
2026-05-06 09:47 38.88630 -7.69528 35024 ft 424 kts 230°
2026-05-06 09:48 38.84651 -7.75133 35015 ft 424 kts 230°
2026-05-06 09:48 38.80670 -7.80727 35022 ft 424 kts 229°
2026-05-06 09:49 38.76681 -7.86308 35026 ft 424 kts 229°
2026-05-06 09:49 38.72690 -7.91878 35024 ft 424 kts 229°
2026-05-06 09:50 38.68702 -7.97454 35028 ft 424 kts 229°
2026-05-06 09:50 38.64710 -8.03015 35033 ft 424 kts 229°
2026-05-06 09:51 38.60712 -8.08573 35010 ft 424 kts 229°
2026-05-06 09:51 38.56719 -8.14110 35041 ft 423 kts 229°
2026-05-06 09:52 38.52755 -8.19598 35045 ft 422 kts 229°
2026-05-06 09:52 38.48772 -8.25109 35047 ft 422 kts 229°
2026-05-06 09:53 38.44791 -8.30604 35044 ft 421 kts 229°
2026-05-06 09:53 38.40814 -8.36092 35034 ft 421 kts 229°
2026-05-06 09:54 38.36826 -8.41582 35026 ft 422 kts 229°
2026-05-06 09:54 38.32826 -8.47075 35009 ft 423 kts 229°
2026-05-06 09:55 38.28823 -8.52557 35024 ft 423 kts 229°
2026-05-06 09:55 38.25123 -8.58343 35038 ft 421 kts 234°
2026-05-06 09:56 38.21575 -8.64274 35037 ft 421 kts 234°
2026-05-06 09:56 38.18033 -8.70161 35040 ft 421 kts 234°
2026-05-06 09:57 38.14454 -8.76090 35034 ft 422 kts 234°
2026-05-06 09:57 38.10881 -8.82010 35030 ft 422 kts 234°
2026-05-06 09:58 38.07269 -8.87906 35035 ft 424 kts 230°
2026-05-06 09:58 38.03121 -8.93243 35036 ft 425 kts 227°
2026-05-06 09:59 37.98959 -8.98522 35041 ft 425 kts 227°
2026-05-06 09:59 37.94762 -9.03834 35041 ft 425 kts 227°
2026-05-06 10:00 37.91273 -9.08250 35050 ft 425 kts 227°
2026-05-06 10:00 37.86399 -9.14407 35038 ft 426 kts 227°
2026-05-06 10:01 37.82871 -9.18840 35025 ft 427 kts 227°
2026-05-06 10:01 37.78656 -9.24136 35038 ft 427 kts 227°
2026-05-06 10:02 37.77257 -9.25891 35045 ft 427 kts 227°